Tracking 25193 objects as of 19-Jan-2022
HD Live streaming from Space Station
objects crossing your sky now

TITAN 4B R/B

Track TITAN 4B R/B now!
10-day predictions
TITAN 4B R/B is classified as:


NORAD ID: 26474
Int'l Code: 2000-047B
Perigee: 542.9 km
Apogee: 627.6 km
Inclination: 68.0 °
Period: 96.2 minutes
Semi major axis: 6956 km
RCS: 15.6118 m2 (large)
Launch date: August 17, 2000
Source: United States (US)
Launch site: AIR FORCE WESTERN TEST RANGE (AFWTR)

Note: This is a ROCKET BODY
aabbcc
Your satellite tracking list
Your tracking list is empty




NASA's NSSDC Master Catalog

Two Line Element Set (TLE):
1 26474U 00047B   22018.80368527  .00000808  00000-0  79468-4 0  9990
2 26474  67.9937 277.8186 0060874 278.4999  80.9247 14.96384319166133
Source of the keplerian elements: AFSPC